Location: Keewatin
(47.4004°N, 93.0827°W)
Time: 15:27:16
(UTC+00:00)

Envisat - Pass Details

Date: 17 December 2019
Orbit: 764 x 766 km, 98.1° (Epoch: 18 January)

Event Time Altitude Azimuth Distance (km) Brightness Sun altitude
Rises 11:59:57 0° 25° (NNE) 3,243 6.4 -18.3°
Reaches altitude 10° 12:02:44 10° 40° (NE) 2,312 5.8 -17.9°
Maximum altitude 12:06:44 23° 92° (E) 1,596 5.5 -17.2°
Drops below altitude 10° 12:10:42 10° 144° (SE) 2,297 6.3 -16.6°
Sets 12:13:27 0° 158° (SSE) 3,217 6.8 -16.1°
